STARLINK-1783 (46686 NORAD) Tracking and Keplerian Element Data
This shows tracking and keplerian element data for the satellite.
Feedback or suggestion? Click here.
Element | Value |
Catalog | 46686 |
Name | STARLINK-1783 |
Epoch Orbit | 181 |
Epoch Day | 20.91667824 |
Epoch Year | 2021 |
RAAN | 28.3122 |
Inclination | 53.0574 |
Eccentricity | 0.0001184 |
Argument of Perigee | 69.4329 |
Mean Anonmoly | 2.9652 |
Mean Motion | 15.06385365 |
Decay Rate | 0.0004257 |
L1 | 1 46686U 20073S 21020.91667824 .00042570 00000-0 28607-2 0 9993 |
L2 | 2 46686 53.0574 28.3122 0001184 69.4329 2.9652 15.06385365 1817 |
Live tracking and technical data element details for STARLINK-1783 (NORAD 46686). STARLINK-1783 can be tracked NOW for your location showing map with azimuth and elevation plus other details from your city location.
Track the satellite on the map from your city or location and see movement details for azimuth, elevation, latitude, longitude, range, height, and movement on the map or in text.
IsCatalogInMostPopularTable: catalog: 46686, numindb: 27
Update: records affected: 1
GetName: 46686 STARLINK-1783
Hit Count: updated at: Fri, 22 Jan 2021 15:38:19 GMT